Regional Weather Roundup
Issued by NWS

Home | Current Version | Previous Version | Graphics & Text | Print | Product List | Glossary On
Versions: 1 2 3 4 5 6 7 8 9 10 11 12 13 14 15 16 17 18 19 20 21 22 23 24 25 26 27 28 29 30 31 32 33 34 35 36 37 38 39 40 41 42 43 44 45 46 47 48 49 50
000
ASUS43 KLMK 271402
RWRKY
KENTUCKY REGIONAL WEATHER ROUNDUP
NATIONAL WEATHER SERVICE LOUISVILLE KY
1000 AM EDT MON APR 27 2015

NOTE "FAIR" INDICATES FEW OR NO CLOUDS BELOW 12,000 FEET
WITH NO SIGNIFICANT WEATHER AND/OR OBSTRUCTIONS TO VISIBILITY.

KYZ001>023-026-027-061>063-070>075-271500-
WESTERN AND SOUTH CENTRAL KENTUCKY

CITY           SKY/WX    TMP DP  RH WIND       PRES   REMARKS
PADUCAH        SUNNY     53  35  50 N5        30.07R
HENDERSON      PTSUNNY   48  32  53 N6        30.04R
OWENSBORO      MOSUNNY   50  33  51 N8        30.03R
HOPKINSVILLE   SUNNY     52  40  64 E3        30.04R
BOWLING GREEN  SUNNY     54  39  57 NE3       30.02R
GLASGOW        NOT AVBL
$$

KYZ024-025-028>034-038-045-046-053-271500-
NORTH CENTRAL KENTUCKY

CITY           SKY/WX    TMP DP  RH WIND       PRES   REMARKS
LOUISVILLE/SDF MOSUNNY   52  34  50 N6        29.99S
LOUISVILLE/LOU SUNNY     52  35  52 N7        29.99F
FORT KNOX      SUNNY     51  37  58 N5        29.98R
$$

KYZ035>037-039>044-047>052-055>060-089>105-271500-
NORTHEAST KENTUCKY

CITY           SKY/WX    TMP DP  RH WIND       PRES   REMARKS
LEXINGTON      SUNNY     51  37  58 N7        29.98S
COVINGTON      SUNNY     51  38  60 CALM      29.98S
FRANKFORT      SUNNY     51  38  60 E3        29.97F
$$

KYZ054-064>069-076>088-106>120-271500-
SOUTHEAST KENTUCKY

CITY           SKY/WX    TMP DP  RH WIND       PRES   REMARKS
JACKSON        SUNNY     50  32  50 CALM      29.96F
LONDON         SUNNY     53  31  42 VRB6      29.98R
SOMERSET       NOT AVBL
MIDDLESBORO    SUNNY     47  39  74 CALM      29.97R
MONTICELLO     SUNNY     52  38  58 CALM      30.01R
$$



USA.gov is the U.S. government's official web portal to all federal, state and local government web resources and services.